RYR729Z LIRP-LEPA

Flight info

Callsign RYR729Z
Flight time 1h 16m
Altitude 35000
Route SPEZI DCT PIDAD DCT TALEP DCT RARQU DCT BALEN UT250 RIXOT
Aircraft B38M/M-SDE1FGHILORVWXY/HB1

Departure

Time 2026-04-23 14:39
Airport Pisa International Airport (LIRP)

Arrival

Time 2026-04-23 15:55
Airport Palma de Mallorca Airport (LEPA)
Time Latitude Longitude Altitude Speed Heading
2026-04-23 14:20 43.69596 10.39998 20 ft 0 kts 130°
2026-04-23 14:34 43.69593 10.39998 18 ft 1 kts 166°
2026-04-23 14:34 43.69587 10.39989 46 ft 2 kts 244°
2026-04-23 14:34 43.69595 10.39962 7 ft 7 kts 304°
2026-04-23 14:35 43.69668 10.39950 19 ft 12 kts 30°
2026-04-23 14:35 43.69683 10.40015 18 ft 6 kts 114°
2026-04-23 14:35 43.69646 10.40053 18 ft 8 kts 165°
2026-04-23 14:35 43.69584 10.40067 18 ft 10 kts 172°
2026-04-23 14:36 43.69509 10.40081 19 ft 12 kts 172°
2026-04-23 14:36 43.69432 10.40096 24 ft 10 kts 172°
2026-04-23 14:36 43.69374 10.40126 27 ft 10 kts 138°
2026-04-23 14:36 43.69332 10.40199 22 ft 4 kts 127°
2026-04-23 14:37 43.69313 10.40235 21 ft 8 kts 127°
2026-04-23 14:37 43.69271 10.40310 22 ft 11 kts 135°
2026-04-23 14:37 43.69243 10.40321 22 ft 2 kts 208°
2026-04-23 14:37 43.69240 10.40317 22 ft 0 kts 216°
2026-04-23 14:38 43.69146 10.40220 23 ft 48 kts 217°
2026-04-23 14:38 43.68700 10.39760 20 ft 110 kts 217°
2026-04-23 14:38 43.67959 10.38994 21 ft 157 kts 220°
2026-04-23 14:38 43.67041 10.38022 398 ft 167 kts 221°
2026-04-23 14:39 43.66104 10.37033 938 ft 176 kts 221°
2026-04-23 14:39 43.65101 10.35986 1557 ft 181 kts 221°
2026-04-23 14:39 43.64022 10.34875 1904 ft 209 kts 222°
2026-04-23 14:39 43.63230 10.33179 2487 ft 211 kts 262°
2026-04-23 14:40 43.63358 10.31173 3235 ft 217 kts 294°
2026-04-23 14:40 43.64160 10.29405 3857 ft 224 kts 309°
2026-04-23 14:40 43.65089 10.27654 4650 ft 227 kts 308°
2026-04-23 14:40 43.66028 10.25891 5457 ft 230 kts 310°
2026-04-23 14:41 43.66986 10.24106 6248 ft 233 kts 311°
2026-04-23 14:41 43.67995 10.22348 6954 ft 236 kts 323°
2026-04-23 14:41 43.69397 10.21115 7394 ft 247 kts 336°
2026-04-23 14:41 43.70931 10.19946 8057 ft 252 kts 335°
2026-04-23 14:42 43.72469 10.18778 8868 ft 254 kts 335°
2026-04-23 14:42 43.73989 10.17402 9394 ft 274 kts 317°
2026-04-23 14:42 43.74944 10.15011 9791 ft 300 kts 285°
2026-04-23 14:42 43.74847 10.12122 10517 ft 308 kts 255°
2026-04-23 14:43 43.74176 10.09237 10966 ft 323 kts 256°
2026-04-23 14:43 43.73590 10.06173 11491 ft 334 kts 257°
2026-04-23 14:43 43.72992 10.03078 12316 ft 335 kts 257°
2026-04-23 14:43 43.72382 9.99948 13090 ft 339 kts 257°
2026-04-23 14:44 43.71763 9.96792 13926 ft 342 kts 257°
2026-04-23 14:44 43.71136 9.93605 14646 ft 345 kts 257°
2026-04-23 14:44 43.70502 9.90391 15390 ft 349 kts 257°
2026-04-23 14:44 43.69859 9.87138 16124 ft 353 kts 257°
2026-04-23 14:45 43.69209 9.83855 16846 ft 356 kts 257°
2026-04-23 14:45 43.68551 9.80536 17525 ft 361 kts 257°
2026-04-23 14:45 43.67883 9.77171 18206 ft 364 kts 257°
2026-04-23 14:45 43.67208 9.73782 18848 ft 368 kts 257°
2026-04-23 14:46 43.66524 9.70353 19434 ft 372 kts 257°
2026-04-23 14:46 43.65834 9.66901 20015 ft 375 kts 256°
2026-04-23 14:46 43.65137 9.63414 20578 ft 379 kts 256°
2026-04-23 14:46 43.64431 9.59894 21135 ft 382 kts 256°
2026-04-23 14:47 43.63718 9.56345 21690 ft 385 kts 256°
2026-04-23 14:47 43.62999 9.52774 22237 ft 389 kts 256°
2026-04-23 14:47 43.62273 9.49169 22796 ft 391 kts 256°
2026-04-23 14:47 43.61538 9.45531 23309 ft 395 kts 256°
2026-04-23 14:48 43.60797 9.41869 23826 ft 398 kts 255°
2026-04-23 14:48 43.60049 9.38183 24255 ft 401 kts 255°
2026-04-23 14:48 43.59294 9.34468 24678 ft 404 kts 255°
2026-04-23 14:48 43.58531 9.30721 25095 ft 407 kts 255°
2026-04-23 14:49 43.57764 9.26958 25506 ft 410 kts 255°
2026-04-23 14:49 43.56987 9.23156 25911 ft 413 kts 255°
2026-04-23 14:49 43.56203 9.19330 26308 ft 416 kts 255°
2026-04-23 14:49 43.55415 9.15486 26701 ft 419 kts 254°
2026-04-23 14:50 43.54616 9.11602 27096 ft 422 kts 254°
2026-04-23 14:50 43.53814 9.07707 27468 ft 424 kts 254°
2026-04-23 14:50 43.53005 9.03784 27875 ft 426 kts 253°
2026-04-23 14:50 43.52189 8.99841 28245 ft 429 kts 253°
2026-04-23 14:51 43.51366 8.95868 28611 ft 432 kts 253°
2026-04-23 14:51 43.50538 8.91878 28972 ft 435 kts 253°
2026-04-23 14:51 43.49703 8.87869 29320 ft 437 kts 253°
2026-04-23 14:51 43.48860 8.83822 29681 ft 440 kts 253°
2026-04-23 14:52 43.48011 8.79760 30008 ft 443 kts 253°
2026-04-23 14:52 43.47151 8.75672 30340 ft 445 kts 251°
2026-04-23 14:52 43.45884 8.71808 30611 ft 443 kts 234°
2026-04-23 14:52 43.43890 8.68615 30938 ft 439 kts 220°
2026-04-23 14:53 43.41659 8.65723 31174 ft 442 kts 220°
2026-04-23 14:53 43.39401 8.62841 31457 ft 444 kts 220°
2026-04-23 14:53 43.37117 8.59971 31750 ft 446 kts 220°
2026-04-23 14:53 43.34813 8.57107 32023 ft 447 kts 219°
2026-04-23 14:54 43.32496 8.54243 32308 ft 449 kts 219°
2026-04-23 14:54 43.30198 8.51409 32613 ft 451 kts 220°
2026-04-23 14:54 43.27868 8.48539 32976 ft 450 kts 220°
2026-04-23 14:54 43.25542 8.45678 33352 ft 449 kts 220°
2026-04-23 14:55 43.23220 8.42825 33733 ft 448 kts 221°
2026-04-23 14:55 43.20898 8.39976 34065 ft 447 kts 221°
2026-04-23 14:55 43.18581 8.37135 34386 ft 447 kts 221°
2026-04-23 14:55 43.16267 8.34300 34656 ft 446 kts 221°
2026-04-23 14:56 43.13956 8.31472 34967 ft 445 kts 222°
2026-04-23 14:56 43.11649 8.28655 35205 ft 445 kts 224°
2026-04-23 14:56 43.07023 8.23011 35215 ft 444 kts 224°
2026-04-23 14:57 43.03161 8.18308 35219 ft 444 kts 224°
2026-04-23 14:57 42.98549 8.12701 35218 ft 444 kts 224°
2026-04-23 14:58 42.93948 8.07121 35211 ft 449 kts 224°
2026-04-23 14:58 42.89224 8.01402 35215 ft 459 kts 224°
2026-04-23 14:59 42.84391 7.95567 35198 ft 468 kts 226°
2026-04-23 14:59 42.79527 7.89704 35207 ft 466 kts 226°
2026-04-23 15:00 42.74663 7.83854 35209 ft 466 kts 227°
2026-04-23 15:00 42.69797 7.78017 35211 ft 466 kts 227°
2026-04-23 15:01 42.64929 7.72188 35215 ft 466 kts 226°
2026-04-23 15:01 42.60058 7.66369 35209 ft 466 kts 226°
2026-04-23 15:02 42.55184 7.60558 35208 ft 466 kts 226°
2026-04-23 15:02 42.50312 7.54763 35201 ft 465 kts 227°
2026-04-23 15:03 42.45444 7.48986 35216 ft 465 kts 227°
2026-04-23 15:03 42.40574 7.43217 35213 ft 465 kts 227°
2026-04-23 15:04 42.35698 7.37454 35207 ft 465 kts 228°
2026-04-23 15:04 42.30825 7.31707 35206 ft 465 kts 227°
2026-04-23 15:05 42.25944 7.25964 35205 ft 465 kts 227°
2026-04-23 15:05 42.21099 7.20274 35204 ft 465 kts 227°
2026-04-23 15:06 42.16212 7.14547 35199 ft 465 kts 228°
2026-04-23 15:06 42.11334 7.08840 35209 ft 465 kts 228°
2026-04-23 15:07 42.06450 7.03138 35205 ft 465 kts 228°
2026-04-23 15:07 42.01602 6.97406 35203 ft 463 kts 230°
2026-04-23 15:08 41.96856 6.91553 35201 ft 462 kts 230°
2026-04-23 15:09 41.89767 6.82872 35187 ft 459 kts 230°
2026-04-23 15:09 41.85047 6.77109 35204 ft 459 kts 230°
2026-04-23 15:10 41.81122 6.72325 35205 ft 459 kts 230°
2026-04-23 15:10 41.75601 6.65610 35204 ft 459 kts 230°
2026-04-23 15:11 41.70876 6.59877 35205 ft 459 kts 230°
2026-04-23 15:11 41.66146 6.54148 35197 ft 459 kts 230°
2026-04-23 15:12 41.61411 6.48427 35211 ft 459 kts 230°
2026-04-23 15:12 41.56681 6.42722 35193 ft 457 kts 229°
2026-04-23 15:13 41.51961 6.37042 35205 ft 457 kts 229°
2026-04-23 15:13 41.47227 6.31356 35206 ft 457 kts 229°
2026-04-23 15:14 41.42495 6.25685 35198 ft 457 kts 229°
2026-04-23 15:14 41.37763 6.20025 35196 ft 457 kts 229°
2026-04-23 15:15 41.33068 6.14421 35198 ft 456 kts 229°
2026-04-23 15:15 41.28344 6.08793 35179 ft 456 kts 229°
2026-04-23 15:16 41.23615 6.03170 35199 ft 456 kts 229°
2026-04-23 15:16 41.18883 5.97556 35176 ft 456 kts 229°
2026-04-23 15:17 41.14206 5.92022 35193 ft 438 kts 229°
2026-04-23 15:17 41.09705 5.86699 35195 ft 432 kts 229°
2026-04-23 15:18 41.05223 5.81412 35195 ft 432 kts 229°
2026-04-23 15:18 41.00736 5.76127 35192 ft 432 kts 229°
2026-04-23 15:19 40.96229 5.70829 35166 ft 438 kts 228°
2026-04-23 15:19 40.94124 5.67947 35166 ft 431 kts 241°
2026-04-23 15:19 40.92412 5.64689 35182 ft 435 kts 241°
2026-04-23 15:20 40.89453 5.59232 35187 ft 443 kts 241°
2026-04-23 15:20 40.85241 5.51395 35185 ft 449 kts 241°
2026-04-23 15:21 40.81665 5.44743 34793 ft 442 kts 241°
2026-04-23 15:21 40.79875 5.41418 34389 ft 447 kts 241°
2026-04-23 15:21 40.78072 5.38073 33794 ft 448 kts 241°
2026-04-23 15:21 40.76260 5.34716 33207 ft 449 kts 241°
2026-04-23 15:22 40.74445 5.31357 32676 ft 451 kts 241°
2026-04-23 15:22 40.72622 5.27984 32203 ft 452 kts 241°
2026-04-23 15:22 40.70793 5.24606 31703 ft 453 kts 241°
2026-04-23 15:22 40.68957 5.21217 31188 ft 454 kts 241°
2026-04-23 15:23 40.67142 5.17872 30679 ft 456 kts 241°
2026-04-23 15:23 40.65296 5.14474 30165 ft 457 kts 241°
2026-04-23 15:23 40.63439 5.11058 29570 ft 459 kts 240°
2026-04-23 15:23 40.61577 5.07637 29052 ft 461 kts 240°
2026-04-23 15:24 40.59706 5.04203 28567 ft 463 kts 240°
2026-04-23 15:24 40.57827 5.00760 28066 ft 464 kts 240°
2026-04-23 15:24 40.55942 4.97309 27564 ft 465 kts 240°
2026-04-23 15:24 40.54048 4.93843 27045 ft 467 kts 240°
2026-04-23 15:25 40.52149 4.90373 26565 ft 468 kts 240°
2026-04-23 15:25 40.50246 4.86900 26066 ft 469 kts 239°
2026-04-23 15:25 40.48335 4.83417 25566 ft 470 kts 239°
2026-04-23 15:25 40.46426 4.79938 25076 ft 468 kts 239°
2026-04-23 15:26 40.44526 4.76482 24571 ft 465 kts 239°
2026-04-23 15:26 40.42639 4.73054 24017 ft 462 kts 239°
2026-04-23 15:26 40.40761 4.69644 23516 ft 458 kts 239°
2026-04-23 15:26 40.38915 4.66296 23010 ft 448 kts 239°
2026-04-23 15:27 40.37113 4.63034 22710 ft 435 kts 239°
2026-04-23 15:27 40.35364 4.59869 22461 ft 423 kts 239°
2026-04-23 15:27 40.33660 4.56789 22142 ft 412 kts 239°
2026-04-23 15:27 40.31995 4.53782 21866 ft 403 kts 239°
2026-04-23 15:28 40.30370 4.50850 21595 ft 394 kts 239°
2026-04-23 15:28 40.28776 4.47978 21312 ft 386 kts 239°
2026-04-23 15:28 40.27214 4.45165 21040 ft 378 kts 239°
2026-04-23 15:28 40.25679 4.42404 20782 ft 371 kts 239°
2026-04-23 15:29 40.24174 4.39698 20526 ft 364 kts 239°
2026-04-23 15:29 40.22693 4.37039 20267 ft 358 kts 239°
2026-04-23 15:29 40.21240 4.34431 20007 ft 352 kts 239°
2026-04-23 15:29 40.19812 4.31871 19770 ft 346 kts 239°
2026-04-23 15:30 40.18404 4.29349 19525 ft 340 kts 239°
2026-04-23 15:30 40.17021 4.26873 19288 ft 334 kts 238°
2026-04-23 15:30 40.15664 4.24446 19060 ft 328 kts 238°
2026-04-23 15:30 40.14327 4.22055 18838 ft 322 kts 238°
2026-04-23 15:31 40.13015 4.19713 18604 ft 317 kts 238°
2026-04-23 15:31 40.11722 4.17406 18368 ft 311 kts 238°
2026-04-23 15:31 40.10455 4.15145 18127 ft 306 kts 238°
2026-04-23 15:31 40.09206 4.12919 17901 ft 304 kts 238°
2026-04-23 15:32 40.07957 4.10693 17683 ft 304 kts 238°
2026-04-23 15:32 40.06710 4.08475 17475 ft 303 kts 238°
2026-04-23 15:32 40.05466 4.06263 17259 ft 301 kts 238°
2026-04-23 15:32 40.04232 4.04069 17044 ft 300 kts 238°
2026-04-23 15:33 40.02999 4.01879 16833 ft 298 kts 238°
2026-04-23 15:33 40.01774 3.99707 16637 ft 297 kts 238°
2026-04-23 15:33 40.00551 3.97539 16421 ft 295 kts 238°
2026-04-23 15:33 39.99338 3.95389 16210 ft 294 kts 238°
2026-04-23 15:34 39.98122 3.93234 15990 ft 297 kts 238°
2026-04-23 15:34 39.96895 3.91062 15779 ft 298 kts 238°
2026-04-23 15:34 39.95669 3.88894 15574 ft 297 kts 238°
2026-04-23 15:34 39.94443 3.86728 15359 ft 296 kts 238°
2026-04-23 15:35 39.93223 3.84574 15161 ft 295 kts 238°
2026-04-23 15:35 39.92008 3.82430 14949 ft 293 kts 238°
2026-04-23 15:35 39.90797 3.80294 14742 ft 292 kts 238°
2026-04-23 15:35 39.89596 3.78177 14533 ft 290 kts 238°
2026-04-23 15:36 39.88399 3.76068 14330 ft 289 kts 238°
2026-04-23 15:36 39.87209 3.73974 14124 ft 287 kts 238°
2026-04-23 15:36 39.86024 3.71890 13918 ft 286 kts 238°
2026-04-23 15:36 39.84844 3.69816 13696 ft 285 kts 238°
2026-04-23 15:37 39.83667 3.67748 13485 ft 284 kts 238°
2026-04-23 15:37 39.82494 3.65688 13282 ft 283 kts 238°
2026-04-23 15:37 39.81718 3.64328 13156 ft 283 kts 238°
2026-04-23 15:37 39.80171 3.61616 12884 ft 280 kts 238°
2026-04-23 15:38 39.79020 3.59598 12675 ft 277 kts 238°
2026-04-23 15:38 39.77876 3.57595 12489 ft 275 kts 238°
2026-04-23 15:38 39.76737 3.55603 12289 ft 274 kts 238°
2026-04-23 15:38 39.75601 3.53614 12108 ft 274 kts 238°
2026-04-23 15:39 39.74467 3.51632 11908 ft 273 kts 238°
2026-04-23 15:39 39.73338 3.49658 11720 ft 271 kts 238°
2026-04-23 15:39 39.72212 3.47692 11533 ft 271 kts 238°
2026-04-23 15:39 39.71090 3.45734 11345 ft 270 kts 238°
2026-04-23 15:40 39.69972 3.43777 11146 ft 269 kts 239°
2026-04-23 15:40 39.69070 3.41677 10956 ft 265 kts 248°
2026-04-23 15:40 39.68255 3.39526 10748 ft 264 kts 248°
2026-04-23 15:40 39.67428 3.37362 10569 ft 264 kts 248°
2026-04-23 15:41 39.66622 3.35259 10393 ft 264 kts 248°
2026-04-23 15:41 39.65803 3.33131 10211 ft 263 kts 247°
2026-04-23 15:41 39.64987 3.31011 10038 ft 263 kts 247°
2026-04-23 15:41 39.64170 3.28892 9827 ft 262 kts 247°
2026-04-23 15:42 39.63354 3.26780 9618 ft 262 kts 247°
2026-04-23 15:42 39.62539 3.24669 9426 ft 262 kts 247°
2026-04-23 15:42 39.61720 3.22551 9235 ft 262 kts 247°
2026-04-23 15:42 39.60905 3.20443 9027 ft 261 kts 246°
2026-04-23 15:43 39.60089 3.18334 8860 ft 261 kts 246°
2026-04-23 15:43 39.59276 3.16233 8683 ft 261 kts 246°
2026-04-23 15:43 39.58725 3.14812 8557 ft 261 kts 246°
2026-04-23 15:43 39.57911 3.12711 8373 ft 261 kts 246°
2026-04-23 15:44 39.57097 3.10614 8196 ft 261 kts 246°
2026-04-23 15:44 39.56282 3.08516 8017 ft 260 kts 246°
2026-04-23 15:44 39.55470 3.06423 7832 ft 260 kts 246°
2026-04-23 15:44 39.54659 3.04337 7633 ft 259 kts 245°
2026-04-23 15:45 39.53862 3.02295 7452 ft 256 kts 247°
2026-04-23 15:45 39.53063 3.00238 7270 ft 255 kts 246°
2026-04-23 15:45 39.52261 2.98176 7090 ft 256 kts 246°
2026-04-23 15:45 39.51459 2.96117 6931 ft 257 kts 245°
2026-04-23 15:46 39.50652 2.94049 6757 ft 258 kts 245°
2026-04-23 15:46 39.49844 2.91975 6552 ft 258 kts 245°
2026-04-23 15:46 39.49032 2.89900 6310 ft 258 kts 245°
2026-04-23 15:46 39.48221 2.87826 6072 ft 258 kts 244°
2026-04-23 15:47 39.47410 2.85754 5876 ft 258 kts 244°
2026-04-23 15:47 39.46599 2.83681 5684 ft 258 kts 243°
2026-04-23 15:47 39.45786 2.81610 5499 ft 258 kts 243°
2026-04-23 15:47 39.44973 2.79535 5314 ft 259 kts 243°
2026-04-23 15:48 39.44162 2.77467 5130 ft 256 kts 243°
2026-04-23 15:48 39.43508 2.75360 4936 ft 252 kts 260°
2026-04-23 15:48 39.43300 2.73129 4745 ft 247 kts 263°
2026-04-23 15:48 39.43097 2.70948 4552 ft 242 kts 263°
2026-04-23 15:49 39.42892 2.68819 4372 ft 235 kts 263°
2026-04-23 15:49 39.42689 2.66752 4206 ft 228 kts 263°
2026-04-23 15:49 39.42487 2.64738 4061 ft 225 kts 262°
2026-04-23 15:49 39.42284 2.62723 3902 ft 228 kts 262°
2026-04-23 15:50 39.42078 2.60696 3795 ft 224 kts 262°
2026-04-23 15:50 39.41884 2.58737 3653 ft 216 kts 265°
2026-04-23 15:50 39.42138 2.56872 3337 ft 212 kts 303°
2026-04-23 15:50 39.43146 2.55581 3068 ft 201 kts 333°
2026-04-23 15:51 39.44337 2.54688 2878 ft 193 kts 340°
2026-04-23 15:51 39.45594 2.54435 2724 ft 179 kts 17°
2026-04-23 15:51 39.46665 2.55134 2676 ft 173 kts 43°
2026-04-23 15:51 39.47535 2.56222 2518 ft 171 kts 51°
2026-04-23 15:52 39.48231 2.57425 2330 ft 163 kts 58°
2026-04-23 15:52 39.48831 2.58620 2146 ft 154 kts 60°
2026-04-23 15:52 39.49383 2.59772 1975 ft 151 kts 60°
2026-04-23 15:52 39.49928 2.60922 1793 ft 149 kts 60°
2026-04-23 15:53 39.50466 2.62063 1608 ft 148 kts 61°
2026-04-23 15:53 39.51001 2.63195 1416 ft 145 kts 61°
2026-04-23 15:53 39.51514 2.64281 1225 ft 138 kts 61°
2026-04-23 15:53 39.52001 2.65314 1077 ft 132 kts 62°
2026-04-23 15:54 39.52486 2.66324 849 ft 131 kts 59°
2026-04-23 15:54 39.52957 2.67317 690 ft 129 kts 60°
2026-04-23 15:54 39.53410 2.68290 519 ft 126 kts 58°
2026-04-23 15:54 39.53866 2.69279 410 ft 130 kts 58°
2026-04-23 15:55 39.54343 2.70273 221 ft 127 kts 60°
2026-04-23 15:55 39.54789 2.71223 52 ft 120 kts 60°
2026-04-23 15:55 39.55170 2.72029 41 ft 79 kts 58°
2026-04-23 15:55 39.55347 2.72405 41 ft 37 kts 58°
2026-04-23 15:56 39.55467 2.72669 41 ft 33 kts 68°
2026-04-23 15:56 39.55497 2.72927 41 ft 17 kts 89°
2026-04-23 15:56 39.55500 2.73112 41 ft 22 kts 88°
2026-04-23 15:56 39.55552 2.73284 39 ft 19 kts 58°
2026-04-23 15:57 39.55620 2.73429 41 ft 14 kts 59°
2026-04-23 15:57 39.55587 2.73526 41 ft 14 kts 149°
2026-04-23 15:57 39.55499 2.73596 41 ft 16 kts 148°
2026-04-23 15:57 39.55397 2.73676 41 ft 18 kts 148°
2026-04-23 15:58 39.55284 2.73767 41 ft 20 kts 148°
2026-04-23 15:58 39.55158 2.73865 41 ft 22 kts 148°
2026-04-23 15:58 39.55022 2.73972 41 ft 24 kts 149°
2026-04-23 15:58 39.54942 2.74000 41 ft 5 kts 219°
2026-04-23 15:59 39.54927 2.73969 41 ft 4 kts 229°
2026-04-23 15:59 39.54897 2.73964 41 ft 5 kts 165°
2026-04-23 15:59 39.54870 2.73975 41 ft 0 kts 195°
2026-04-23 15:59 39.54855 2.73955 39 ft 7 kts 249°
2026-04-23 16:00 39.54852 2.73866 41 ft 11 kts 268°
2026-04-23 16:00 39.54851 2.73836 41 ft 2 kts 267°
2026-04-23 16:00 39.54851 2.73835 41 ft 0 kts 267°